Regional Weather Roundup
Issued by NWS

Home | Current Version | Previous Version | Graphics & Text | Print | Product List | Glossary On
Versions: 1 2 3 4 5 6 7 8 9 10 11 12 13 14 15 16 17 18 19 20 21 22 23 24 25 26 27 28 29 30 31 32 33 34 35 36 37 38 39 40 41 42 43 44 45 46 47 48 49 50
000
ASUS43 KBIS 211710
RWRND

NORTH DAKOTA REGIONAL WEATHER ROUNDUP
NATIONAL WEATHER SERVICE BISMARCK ND
1200 PM CDT MON AUG 21 2017

NOTE: "FAIR" INDICATES FEW OR NO CLOUDS BELOW 12,000 FEET WITH NO
SIGNIFICANT WEATHER AND/OR OBSTRUCTIONS TO VISIBILITY.


NDZ001>003-009>011-017-211800-
NORTHWEST NORTH DAKOTA

CITY           SKY/WX    TMP DP  RH WIND       PRES   REMARKS
WILLISTON      PTSUNNY   71  41  33 N21G26    30.09R
MINOT          SUNNY     73  47  39 NW26G33   29.95S
MINOT AFB      SUNNY     72  46  39 NW24      29.94S
$$

NDZ018>021-031>035-040>046-211800-
SOUTHWEST NORTH DAKOTA

CITY           SKY/WX    TMP DP  RH WIND       PRES   REMARKS
BISMARCK       SUNNY     73  56  54 W14G22    29.98F
DICKINSON      SUNNY     73  42  32 N20G30    30.04R
GARRISON         N/A     72  49  44 NW20G28   29.96S
HETTINGER ARPT SUNNY     75  43  31 NW16G25   30.06S
$$

NDZ004>008-012>016-024-026-027-054-211800-
NORTHEAST NORTH DAKOTA

CITY           SKY/WX    TMP DP  RH WIND       PRES   REMARKS
GRAND FORKS    CLOUDY    71  54  54 S7        29.92F
GRND FRKS AFB  CLOUDY    71  53  51 S8        29.92F
DEVILS LAKE    CLOUDY    67  51  56 W7        29.97R
$$

NDZ022-023-025-028>030-036>039-047>053-211800-
SOUTHEAST NORTH DAKOTA

CITY           SKY/WX    TMP DP  RH WIND       PRES   REMARKS
FARGO          CLOUDY    70  57  63 SE14G20   29.92F
JAMESTOWN      CLOUDY    69  56  62 SW12      29.92F
$$




USA.gov is the U.S. government's official web portal to all federal, state and local government web resources and services.